User: anonymous   Login
Location: Unspecified
(0.0000°N, 0.0000°E)
Time: 03:20:28
(UTC+00:00)
Language:

Kosmos-2180 - Orbit

View from above orbital plane
View from above orbital plane
View from above satellite
View from above satellite

Ground track
Ground track

The orbit data is extracted from the following two-line orbital elements,

1 21875U 92008A   18172.57954328 +.00000009 +00000-0 -71213-5 0  9993
2 21875 082.9269 223.2382 0037932 168.7729 305.4232 13.73730841320222
Epoch (UTC): 21 June 2018 13:54:32
Eccentricity: 0.0037932
inclination: 82.9269°
perigee height: 958 km
apogee height: 1014 km
right ascension of ascending node: 223.2382°
argument of perigee: 168.7729°
revolutions per day: 13.73730841
mean anomaly at epoch: 305.4232°
orbit number at epoch: 32022

The dashed part of the orbit path shows where the satellite is in the earth's shadow,  

DLR